Regional Weather Roundup
Issued by NWS

Home | Current Version | Previous Version | Graphics & Text | Print | Product List | Glossary On
Versions: 1 2 3 4 5 6 7 8 9 10 11 12 13 14 15 16 17 18 19 20 21 22 23 24 25 26 27 28 29 30 31 32 33 34 35 36 37 38 39 40 41 42 43 44 45 46 47 48 49 50
068
ASUS43 KFSD 210402
RWRSD

WEATHER ROUNDUP FOR SOUTH DAKOTA
NATIONAL WEATHER SERVICE SIOUX FALLS SD
1100 PM CDT SUN AUG 20 2017

NOTE: "FAIR" INDICATES FEW OR NO CLOUDS BELOW 12,000 FEET WITH NO
SIGNIFICANT WEATHER AND/OR OBSTRUCTIONS TO VISIBILITY.


SDZ001>005-009-010-012>017-210500-
NORTHWEST AND NORTH CENTRAL SOUTH DAKOTA

CITY           SKY/WX    TMP DP  RH WIND       PRES   REMARKS
BUFFALO          N/A     67  46  47 E15       29.95S
FAITH            N/A     63  49  60 E10       30.03R
MOBRIDGE       CLEAR     63  52  67 E12       30.01F
$$

SDZ012>016-024>037-041>051-057-063-072>074-210500-
SOUTHWEST AND SOUTH CENTRAL SOUTH DAKOTA

CITY           SKY/WX    TMP DP  RH WIND       PRES   REMARKS
RAPID CTY ARPT CLEAR     69  54  58 SE16      30.02R
PIERRE         CLEAR     62  51  67 E10       30.01S
CUSTER         CLEAR     64  49  57 E9        30.15R
ELLSWORTH AFB  CLEAR     70  54  57 SE14      30.01R
PHILIP         CLEAR     62  48  60 E9        30.02R
PINE RIDGE     CLEAR     67  57  70 E8        30.04R
SPEARFISH      FAIR      70  52  52 E14       30.00F
WINNER         CLOUDY    70  62  76 NE6       30.02R
$$

SDZ004>011-016>023-039-040-210500-
NORTHEAST SOUTH DAKOTA

CITY           SKY/WX    TMP DP  RH WIND       PRES   REMARKS
ABERDEEN       MOCLDY    58  56  93 NE7       30.04S
WATERTOWN      CLOUDY    60  57  89 NE3       30.04F
SISSETON         N/A     61  59  93 NW5       30.04R
$$

SDZ017-020-022-023-036>040-048>070-210500-
SOUTHEAST SOUTH DAKOTA

CITY           SKY/WX    TMP DP  RH WIND       PRES   REMARKS
SIOUX FALLS    MOCLDY    69  65  86 NE6       30.02R
HURON          CLEAR     60  57  89 NE7       30.02S
CHAMBERLAIN    CLOUDY    69  61  76 NE5       30.02R
MITCHELL       CLEAR     68  58  70 E5        30.00S
YANKTON        PTCLDY    71  67  87 NE9       30.00R
$$

ABBREVIATIONS USED IN REMARKS
   TC - TEMPERATURE IN CELSIUS
  WCI - WIND CHILL INDEX
   HX - HEAT INDEX
  VSB - VISIBILITY





USA.gov is the U.S. government's official web portal to all federal, state and local government web resources and services.